PEGASUS DEB, 24129

Orbit data source: Space-Track

PEGASUS DEB, 24129 is space debris in LEO originally from a launch on Thu, 19 May 1994 UTC launched from the Air Force Western Test Range (AFWTR). Debris objects in space refer to the collection of defunct objects orbiting the Earth. Examples of debris include non-operational satellites, rocket bodies, and fragments generated from explosions, collisions, or faulty payload assembly.

Loading next visibility...
Identifier
24129, 1994-029GC
Orbit
LEO
Country
Flag of USUS
Related business
Manufacturer
Unknown
Mission
Spacecraft
Bus & Motor
Unknown
Mass
Unknown
Launch date (UTC)
1994-05-19 (32 years ago)
Launch vehicle
Unknown
Launch site
Air Force Western Test Range (AFWTR)
Object type
Payload
Rocket body
Debris
Shape & HBR
Unknown shape, 0.2 m
Radar Cross Section
Medium (>0.1 m² and <1 m²)

Expand to show TLE details & history
Last TLE update: 17 hours ago

TLE from 17 hours ago
0 PEGASUS DEB
1 24129U 94029GC  26177.97414007  .00005044  00000-0  12395-2 0  9992
2 24129  81.4742 152.0090 0538985  29.3926  29.2382 13.89744546501207
Epoch: 2026-06-26T23:22Z
TLE epoch observation values (Epoch: 2026-06-26T23:22:45.702Z)
Latitude
60.77333°
Longitude
-98.32217°
Altitude
601.539 km
Speed
7.738 km/s
True Right ascension
11h 09m 51s
True Declination
60° 37' 24"
Sunlit
Object was in daylight at epoch
Visualization orbit readout
Latitude
Unknown
Longitude
Unknown
Altitude
Unknown
Speed
Unknown
Apparent Right ascension
Unknown
Apparent Declination
Unknown
Sunlit
N/A
Visualization observer readout
Local Sidereal Time
04:07:46
Azimuth
Unknown
Elevation
Unknown
Doppler factor
Unknown
Orbital elements
Apogee altitude
1,320.424 km
Perigee altitude
532.984 km
Semi-major axis
7,304.841 km
Eccentricity
0.0539
Inclination
81.4742°
RAAN
152.009°
Arg. of periapsis
29.3926°
True anomaly
32.44121°
Mean anomaly
29.2382°
Eccentric anomaly
30.82041°
Mean motion
3.47638 °/min
Orbital period
103.56 mins
BSTAR
0.0012395
Loading maneuver chart data...
Computing Atmospheric mass density...

Documentation

Showing up to 5 results
|